Time,TemperatureF,DewpointF,PressureIn,WindDirection,WindDirectionDegrees,WindSpeedMPH,WindSpeedGustMPH,Humidity,HourlyPrecipIn,Conditions,Clouds,dailyrainin,SoftwareType,DateUTC
2013-04-02 00:03:00,26.7,16.0,30.16,NNE,15,0.0,0.0,63,0.00,,,0.00,weatherlink.com 1.10,2013-04-02 04:03:00,
2013-04-02 00:18:00,26.3,17.0,30.16,NNE,15,0.0,0.0,68,0.00,,,0.00,weatherlink.com 1.10,2013-04-02 04:18:00,
2013-04-02 00:33:00,26.2,18.0,30.16,NNE,15,0.0,0.0,70,0.00,,,0.00,weatherlink.com 1.10,2013-04-02 04:33:00,
2013-04-02 00:48:00,26.0,18.0,30.17,NNE,15,0.0,0.0,71,0.00,,,0.00,weatherlink.com 1.10,2013-04-02 04:48:00,
2013-04-02 01:03:00,25.6,18.0,30.17,NNE,15,0.0,0.0,72,0.00,,,0.00,weatherlink.com 1.10,2013-04-02 05:03:00,
2013-04-02 01:18:00,25.5,17.0,30.16,NNE,15,0.0,1.0,71,0.00,,,0.00,weatherlink.com 1.10,2013-04-02 05:18:00,
2013-04-02 01:33:00,25.2,17.0,30.17,NNE,15,0.0,0.0,72,0.00,,,0.00,weatherlink.com 1.10,2013-04-02 05:33:00,
2013-04-02 01:48:00,25.2,18.0,30.17,WNW,294,0.0,2.0,75,0.00,,,0.00,weatherlink.com 1.10,2013-04-02 05:48:00,
2013-04-02 02:03:00,25.6,18.0,30.17,WNW,293,0.0,2.0,74,0.00,,,0.00,weatherlink.com 1.10,2013-04-02 06:03:00,
2013-04-02 02:18:00,25.6,19.0,30.17,WNW,293,0.0,2.0,75,0.00,,,0.00,weatherlink.com 1.10,2013-04-02 06:18:00,
2013-04-02 02:33:00,25.2,18.0,30.17,WNW,293,0.0,0.0,75,0.00,,,0.00,weatherlink.com 1.10,2013-04-02 06:33:00,
2013-04-02 02:48:00,25.0,17.0,30.17,WNW,293,0.0,0.0,73,0.00,,,0.00,weatherlink.com 1.10,2013-04-02 06:48:00,
2013-04-02 03:03:00,24.9,19.0,30.17,WSW,258,0.0,2.0,77,0.00,,,0.00,weatherlink.com 1.10,2013-04-02 07:03:00,
2013-04-02 03:18:00,24.7,18.0,30.17,WSW,258,0.0,0.0,76,0.00,,,0.00,weatherlink.com 1.10,2013-04-02 07:18:00,
2013-04-02 03:33:00,24.8,18.0,30.17,West,260,0.0,2.0,75,0.00,,,0.00,weatherlink.com 1.10,2013-04-02 07:33:00,
2013-04-02 03:48:00,24.8,18.0,30.17,West,261,1.0,4.0,74,0.00,,,0.00,weatherlink.com 1.10,2013-04-02 07:48:00,
2013-04-02 04:03:00,24.8,18.0,30.18,West,268,2.0,3.0,75,0.00,,,0.00,weatherlink.com 1.10,2013-04-02 08:03:00,
2013-04-02 04:18:00,25.6,18.0,30.18,NNW,331,2.0,9.0,73,0.00,,,0.00,weatherlink.com 1.10,2013-04-02 08:18:00,
2013-04-02 04:33:00,25.4,18.0,30.18,NE,40,1.0,6.0,73,0.00,,,0.00,weatherlink.com 1.10,2013-04-02 08:33:00,
2013-04-02 04:48:00,25.0,17.0,30.18,NNE,16,0.0,1.0,73,0.00,,,0.00,weatherlink.com 1.10,2013-04-02 08:48:00,
2013-04-02 05:03:00,24.2,17.0,30.18,NNE,16,0.0,0.0,74,0.00,,,0.00,weatherlink.com 1.10,2013-04-02 09:03:00,
2013-04-02 05:18:00,23.3,17.0,30.18,NNE,16,0.0,0.0,77,0.00,,,0.00,weatherlink.com 1.10,2013-04-02 09:18:00,
2013-04-02 05:33:00,23.0,18.0,30.19,NNE,16,0.0,0.0,80,0.00,,,0.00,weatherlink.com 1.10,2013-04-02 09:33:00,
2013-04-02 05:49:00,22.9,18.0,30.19,NNE,15,0.0,0.0,81,0.00,,,0.00,weatherlink.com 1.10,2013-04-02 09:49:00,
2013-04-02 06:04:00,22.7,18.0,30.20,NNE,15,0.0,0.0,83,0.00,,,0.00,weatherlink.com 1.10,2013-04-02 10:04:00,
2013-04-02 06:19:00,22.3,18.0,30.20,NNE,15,1.0,1.0,83,0.00,,,0.00,weatherlink.com 1.10,2013-04-02 10:19:00,
2013-04-02 06:34:00,22.2,18.0,30.21,North,5,0.0,1.0,84,0.00,,,0.00,weatherlink.com 1.10,2013-04-02 10:34:00,
2013-04-02 06:49:00,22.0,18.0,30.21,WSW,242,0.0,3.0,84,0.00,,,0.00,weatherlink.com 1.10,2013-04-02 10:49:00,
2013-04-02 07:04:00,22.3,18.0,30.21,WNW,296,1.0,2.0,83,0.00,,,0.00,weatherlink.com 1.10,2013-04-02 11:04:00,
2013-04-02 07:19:00,22.5,18.0,30.22,West,273,1.0,2.0,84,0.00,,,0.00,weatherlink.com 1.10,2013-04-02 11:19:00,
2013-04-02 07:34:00,22.6,19.0,30.23,WSW,245,1.0,3.0,84,0.00,,,0.00,weatherlink.com 1.10,2013-04-02 11:34:00,
2013-04-02 07:49:00,22.8,18.0,30.23,WNW,287,1.0,3.0,83,0.00,,,0.00,weatherlink.com 1.10,2013-04-02 11:49:00,
2013-04-02 08:04:00,23.2,19.0,30.24,West,262,1.0,4.0,84,0.00,,,0.00,weatherlink.com 1.10,2013-04-02 12:04:00,
2013-04-02 08:19:00,23.7,20.0,30.25,West,273,1.0,3.0,84,0.00,,,0.00,weatherlink.com 1.10,2013-04-02 12:19:00,
2013-04-02 08:34:00,24.4,21.0,30.25,West,278,1.0,4.0,85,0.00,,,0.00,weatherlink.com 1.10,2013-04-02 12:34:00,
2013-04-02 08:49:00,26.2,21.0,30.25,West,263,2.0,5.0,82,0.00,,,0.00,weatherlink.com 1.10,2013-04-02 12:49:00,
2013-04-02 09:04:00,27.5,22.0,30.26,WNW,294,3.0,6.0,78,0.00,,,0.00,weatherlink.com 1.10,2013-04-02 13:04:00,
2013-04-02 09:19:00,28.7,21.0,30.26,NW,313,2.0,8.0,72,0.00,,,0.00,weatherlink.com 1.10,2013-04-02 13:19:00,
2013-04-02 09:34:00,29.7,21.0,30.26,West,261,4.0,6.0,71,0.00,,,0.00,weatherlink.com 1.10,2013-04-02 13:34:00,
2013-04-02 09:49:00,30.6,21.0,30.27,NW,311,1.0,6.0,68,0.00,,,0.00,weatherlink.com 1.10,2013-04-02 13:49:00,
2013-04-02 10:04:00,31.3,21.0,30.27,West,265,2.0,7.0,66,0.00,,,0.00,weatherlink.com 1.10,2013-04-02 14:04:00,
2013-04-02 10:19:00,32.8,21.0,30.27,WNW,282,2.0,10.0,63,0.00,,,0.00,weatherlink.com 1.10,2013-04-02 14:19:00,
2013-04-02 10:34:00,33.7,20.0,30.27,NE,42,4.0,6.0,57,0.00,,,0.00,weatherlink.com 1.10,2013-04-02 14:34:00,
2013-04-02 10:49:00,34.2,18.0,30.28,WNW,289,9.0,12.0,52,0.00,,,0.00,weatherlink.com 1.10,2013-04-02 14:49:00,
2013-04-02 11:04:00,35.4,20.0,30.27,SW,221,10.0,10.0,54,0.00,,,0.00,weatherlink.com 1.10,2013-04-02 15:04:00,
2013-04-02 11:20:00,35.2,18.0,30.27,NW,319,4.0,10.0,50,0.00,,,0.00,weatherlink.com 1.10,2013-04-02 15:20:00,
2013-04-02 11:35:00,36.8,19.0,30.28,WNW,293,7.0,11.0,48,0.00,,,0.00,weatherlink.com 1.10,2013-04-02 15:35:00,
2013-04-02 11:50:00,37.7,20.0,30.28,West,270,5.0,11.0,49,0.00,,,0.00,weatherlink.com 1.10,2013-04-02 15:50:00,
2013-04-02 12:05:00,37.7,18.0,30.27,West,271,4.0,14.0,46,0.00,,,0.00,weatherlink.com 1.10,2013-04-02 16:05:00,
2013-04-02 12:20:00,37.8,19.0,30.27,WNW,295,6.0,13.0,47,0.00,,,0.00,weatherlink.com 1.10,2013-04-02 16:20:00,
2013-04-02 12:35:00,37.7,19.0,30.27,West,263,4.0,18.0,47,0.00,,,0.00,weatherlink.com 1.10,2013-04-02 16:35:00,
2013-04-02 12:50:00,38.3,19.0,30.27,WSW,258,6.0,10.0,45,0.00,,,0.00,weatherlink.com 1.10,2013-04-02 16:50:00,
2013-04-02 13:05:00,40.0,19.0,30.26,West,280,6.0,16.0,43,0.00,,,0.00,weatherlink.com 1.10,2013-04-02 17:05:00,
2013-04-02 13:20:00,41.1,19.0,30.25,NW,310,10.0,13.0,41,0.00,,,0.00,weatherlink.com 1.10,2013-04-02 17:20:00,
2013-04-02 13:35:00,40.9,19.0,30.25,West,263,8.0,17.0,41,0.00,,,0.00,weatherlink.com 1.10,2013-04-02 17:35:00,
2013-04-02 14:05:00,41.6,16.0,30.25,West,263,7.0,17.0,36,0.00,,,0.00,weatherlink.com 1.10,2013-04-02 18:05:00,
2013-04-02 14:20:00,41.3,17.0,30.24,West,265,3.0,14.0,38,0.00,,,0.00,weatherlink.com 1.10,2013-04-02 18:20:00,
2013-04-02 14:35:00,42.2,15.0,30.24,West,273,5.0,13.0,33,0.00,,,0.00,weatherlink.com 1.10,2013-04-02 18:35:00,
2013-04-02 14:50:00,43.1,15.0,30.23,NW,308,8.0,14.0,32,0.00,,,0.00,weatherlink.com 1.10,2013-04-02 18:50:00,
2013-04-02 15:05:00,43.8,16.0,30.23,WNW,286,6.0,12.0,32,0.00,,,0.00,weatherlink.com 1.10,2013-04-02 19:05:00,
2013-04-02 15:20:00,43.9,16.0,30.23,West,279,10.0,16.0,33,0.00,,,0.00,weatherlink.com 1.10,2013-04-02 19:20:00,
2013-04-02 15:35:00,43.8,15.0,30.22,West,271,8.0,12.0,31,0.00,,,0.00,weatherlink.com 1.10,2013-04-02 19:35:00,
2013-04-02 15:50:00,43.5,14.0,30.22,WNW,291,4.0,18.0,30,0.00,,,0.00,weatherlink.com 1.10,2013-04-02 19:50:00,
2013-04-02 16:05:00,43.7,14.0,30.22,NW,306,7.0,16.0,30,0.00,,,0.00,weatherlink.com 1.10,2013-04-02 20:05:00,
2013-04-02 16:20:00,43.1,13.0,30.22,NW,309,5.0,15.0,29,0.00,,,0.00,weatherlink.com 1.10,2013-04-02 20:20:00,
2013-04-02 16:35:00,43.1,13.0,30.22,WNW,292,5.0,12.0,30,0.00,,,0.00,weatherlink.com 1.10,2013-04-02 20:35:00,
2013-04-02 16:50:00,42.3,10.0,30.22,NE,49,6.0,16.0,27,0.00,,,0.00,weatherlink.com 1.10,2013-04-02 20:50:00,
2013-04-02 17:05:00,42.8,12.0,30.22,West,281,6.0,13.0,28,0.00,,,0.00,weatherlink.com 1.10,2013-04-02 21:05:00,
2013-04-02 17:20:00,42.0,12.0,30.23,NE,37,10.0,12.0,29,0.00,,,0.00,weatherlink.com 1.10,2013-04-02 21:20:00,
2013-04-02 17:35:00,41.9,11.0,30.23,WSW,252,11.0,17.0,28,0.00,,,0.00,weatherlink.com 1.10,2013-04-02 21:35:00,
2013-04-02 17:50:00,40.8,8.0,30.24,North,350,9.0,18.0,26,0.00,,,0.00,weatherlink.com 1.10,2013-04-02 21:50:00,
2013-04-02 18:05:00,39.9,8.0,30.24,NNE,13,3.0,15.0,27,0.00,,,0.00,weatherlink.com 1.10,2013-04-02 22:05:00,
2013-04-02 18:20:00,39.3,8.0,30.24,North,5,8.0,18.0,27,0.00,,,0.00,weatherlink.com 1.10,2013-04-02 22:20:00,
2013-04-02 18:50:00,38.7,7.0,30.25,WNW,283,7.0,12.0,27,0.00,,,0.00,weatherlink.com 1.10,2013-04-02 22:50:00,
2013-04-02 19:05:00,38.3,7.0,30.25,North,355,3.0,12.0,27,0.00,,,0.00,weatherlink.com 1.10,2013-04-02 23:05:00,
2013-04-02 19:20:00,37.9,7.0,30.25,NNE,18,7.0,13.0,28,0.00,,,0.00,weatherlink.com 1.10,2013-04-02 23:20:00,
2013-04-02 19:35:00,37.4,8.0,30.25,NE,42,7.0,11.0,30,0.00,,,0.00,weatherlink.com 1.10,2013-04-02 23:35:00,
2013-04-02 19:50:00,36.6,9.0,30.25,NW,309,3.0,8.0,32,0.00,,,0.00,weatherlink.com 1.10,2013-04-02 23:50:00,
2013-04-02 20:05:00,36.0,9.0,30.25,NNE,13,2.0,9.0,33,0.00,,,0.00,weatherlink.com 1.10,2013-04-03 00:05:00,
2013-04-02 20:20:00,35.5,10.0,30.26,NNE,19,2.0,8.0,35,0.00,,,0.00,weatherlink.com 1.10,2013-04-03 00:20:00,
2013-04-02 20:35:00,34.9,10.0,30.26,North,350,0.0,4.0,36,0.00,,,0.00,weatherlink.com 1.10,2013-04-03 00:35:00,
2013-04-02 20:50:00,34.5,11.0,30.27,North,9,0.0,3.0,37,0.00,,,0.00,weatherlink.com 1.10,2013-04-03 00:50:00,
2013-04-02 21:05:00,33.9,11.0,30.27,NNE,24,0.0,3.0,38,0.00,,,0.00,weatherlink.com 1.10,2013-04-03 01:05:00,
2013-04-02 21:20:00,33.7,11.0,30.27,NNE,25,0.0,2.0,39,0.00,,,0.00,weatherlink.com 1.10,2013-04-03 01:20:00,
2013-04-02 21:35:00,33.0,10.0,30.28,North,11,0.0,3.0,39,0.00,,,0.00,weatherlink.com 1.10,2013-04-03 01:35:00,
2013-04-02 21:50:00,32.6,12.0,30.29,NNE,16,1.0,3.0,43,0.00,,,0.00,weatherlink.com 1.10,2013-04-03 01:50:00,
2013-04-02 22:05:00,32.7,12.0,30.29,NNW,343,1.0,3.0,43,0.00,,,0.00,weatherlink.com 1.10,2013-04-03 02:05:00,
2013-04-02 22:36:00,31.8,13.0,30.30,NW,315,0.0,2.0,46,0.00,,,0.00,weatherlink.com 1.10,2013-04-03 02:36:00,
2013-04-02 22:50:00,31.3,13.0,30.30,NW,315,0.0,2.0,47,0.00,,,0.00,weatherlink.com 1.10,2013-04-03 02:50:00,
2013-04-02 23:05:00,31.1,14.0,30.30,NNE,30,1.0,3.0,49,0.00,,,0.00,weatherlink.com 1.10,2013-04-03 03:05:00,
2013-04-02 23:20:00,30.8,14.0,30.31,NNW,338,0.0,2.0,49,0.00,,,0.00,weatherlink.com 1.10,2013-04-03 03:20:00,
2013-04-02 23:35:00,30.2,13.0,30.31,NNW,338,0.0,1.0,50,0.00,,,0.00,weatherlink.com 1.10,2013-04-03 03:35:00,
2013-04-02 23:50:00,29.4,13.0,30.31,NNW,338,0.0,0.0,51,0.00,,,0.00,weatherlink.com 1.10,2013-04-03 03:50:00,